Погода в Озерках

Россия / Ульяновская область     54°16′56″N   49°04′56″E
темп.,
°C
ветер,
м/с
пор.,
м/с
влажн.,
%
обл.,
%
осадки,
мм/ч
давл.,
гПа
погр.,
м
27 января, чт
чт2701:00−15ююз2496100 0.0 101952
04:00−19ююз229983 0.0 102024
07:00−21ююз2210021 0.0 102123
10:00−20ю33995 0.0 102244
13:00−14ю24935 0.0 102298
16:00−13ююв359568 0.0 102271
19:00−15ююв369743 0.0 102360
22:00−15ююв359863 0.0 102260
28 января, пт
пт2801:00−14ююв359870 0.0 102262
04:00−15ююв3610093 0.0 102264
07:00−14ююв359988 0.0 102171
10:00−11юв3697100 0.0 1021130
13:00−8юв4793100 0.0 1020220
16:00−7вюв3792100 0.0 1018195
19:00−8вюв4995100 0.2 1018257
22:00−8юв489595 0.4 1016233
29 января, сб
сб2901:00−9юв379699 0.0 1016156
04:00−11ююв369764 0.0 1015103
07:00−13ююв479874 0.0 101598
10:00−14ююв489890 0.0 1015124
13:00−11ююв5996100 0.0 1014213
16:00−9ююв51095100 0.2 1013301
19:00−8ююв51195100 0.8 1012388
22:00−8ююв51095100 1.3 1011338
30 января, вс
вс3001:00−7ююв4896100 0.6 1009248
04:00−6ююв4796100 1.2 1008188
07:00−6ююв359799 0.6 1006128
10:00−6ю349768 0.8 100686
13:00−2ю3696100 0.2 1005293
16:00−2ююз489696 0.6 1004548
19:00−3ююз499391 0.2 1005268
22:00−7ююз4109376 0.2 1005180
31 января, пн
пн3101:00−8ю51194100 0.0 1006288
04:00−8ю61394100 0.0 1005396
07:00−5ююв81593100 0.1 1003513
10:00−4ююв81694100 0.3 1003646
13:00−1ююв81794100 0.4 1002851
16:000ю91596100 0.6 1001984
19:000ю91697100 0.3 10011082
22:000ю91697100 0.4 1001977